Location: *
(46.1710°N, 16.2290°E)
Time: 05:50:26
(UTC+00:00)

Daily predictions for brighter satellites

Satellite Brightness Start Highest point End
(mag) Time Altitude Azimuth Time Altitude Azimuth Time Altitude Azimuth
Lacrosse 5 rocket 4.5 00:11:29 10° NE 00:11:29 10° NE 00:11:31 10° NE
Cosmos 2360 Rocket 4.1 00:03:54 10° NW 00:05:46 21° NW 00:05:46 21° NW
Cosmos 2333 Rocket 3.3 00:16:01 10° NNW 00:19:27 38° NNW 00:19:27 38° NNW
CZ-2D R/B 3.0 00:21:42 10° NNE 00:25:50 47° NE 00:25:50 47° NE
Cosmos 2237 Rocket 3.6 00:25:11 10° NNW 00:30:22 35° NE 00:32:55 24° E
BREEZE-M DEB (TANK) 3.6 00:35:28 10° WNW 00:45:52 71° NNE 00:49:58 10° E
Meteor 1-11 Rocket 4.1 00:42:33 10° N 00:47:41 67° N 00:47:41 67° N
Cosmos 1464 Rocket 4.2 00:42:33 10° N 00:47:33 60° NNW 00:47:33 60° NNW
Cosmos 2297 Rocket 3.6 00:51:17 28° ESE 00:51:34 28° ESE 00:56:19 10° NE
Cosmos 1937 Rocket 4.1 00:54:20 53° NE 00:54:20 53° NE 00:58:26 10° NNE
USA 267 4.2 00:49:56 10° ENE 00:55:48 34° SE 00:55:56 34° SE
SJ 16-02 2.9 01:00:15 31° N 01:00:15 31° N 01:02:41 10° NNE
CZ-4B R/B 4.3 00:53:34 10° NNE 00:56:52 44° N 00:56:52 44° N
Cosmos 2219 4.0 00:59:02 43° ESE 00:59:03 43° ESE 01:04:28 10° NE
Cosmos 1816 Rocket 4.5 01:05:46 72° SE 01:06:15 76° E 01:12:36 10° NNE
Cosmos 1898 Rocket 4.0 01:07:45 55° N 01:07:45 55° N 01:11:55 10° NNE
Cosmos 2219 Rocket 3.7 01:03:02 10° NW 01:05:24 25° NW 01:05:24 25° NW
NOSS 0 Rocket 3.8 01:03:52 10° NNW 01:09:53 85° NW 01:09:53 85° NW
Timation 2 Rocket 4.0 01:10:13 78° SW 01:10:43 86° WNW 01:17:41 10° NNE
Cosmos 990 Rocket 4.5 01:14:28 51° NNW 01:14:28 51° NNW 01:18:38 10° NNE
SL-08 R/B 3.8 01:13:36 59° E 01:13:44 59° ENE 01:18:38 10° N
USA 238 DEB 4.2 01:14:52 42° SE 01:16:02 46° ESE 01:22:30 10° NE
USA 238 4.2 01:14:56 41° SE 01:16:08 45° ESE 01:22:37 10° NE
Cosmos 2227 Rocket 3.0 01:16:59 38° SE 01:17:47 40° ESE 01:23:02 10° NE
H-2A R/B 3.1 01:18:33 41° ENE 01:18:33 41° ENE 01:22:28 10° N
Cosmos 1634 Rocket 4.2 01:16:42 10° N 01:22:51 65° ENE 01:25:22 36° SSE
Cosmos 1908 Rocket 4.3 01:19:01 10° N 01:22:33 51° NNE 01:22:33 51° NNE
COSMOS 2428 4.3 01:20:07 10° NW 01:22:22 23° NW 01:22:22 23° NW
USA 234 4.0 01:25:00 10° E 01:31:15 50° NNE 01:37:31 10° NW
Cosmos 1980 3.5 01:27:27 10° NNW 01:33:09 82° WSW 01:33:27 78° SSW
Tsikada Rocket 3.9 01:32:36 66° SW 01:33:30 77° W 01:39:57 10° N
ADEOS II 1.9 01:29:20 10° NNE 01:34:37 86° ESE 01:34:57 79° S
IRS-1D 3.5 01:31:14 10° N 01:36:00 67° NW 01:36:00 67° NW
STARLINK-37 4.5 01:37:46 45° NNE 01:37:46 45° NNE 01:41:01 10° NE
Cosmos 2034 Rocket 4.4 01:31:56 10° NNW 01:37:39 46° W 01:37:39 46° W
STARLINK-36 4.4 01:39:13 46° NNE 01:39:13 46° NNE 01:42:31 10° NE
STARLINK-68 4.4 01:40:58 45° N 01:40:58 45° N 01:44:22 10° NE
NOSS 3-2 (A) 3.6 01:39:27 50° SSE 01:40:38 59° ESE 01:46:57 10° NE
STARLINK-63 4.4 01:42:31 46° N 01:42:31 46° N 01:45:58 10° NE
STARLINK-1025 4.3 01:42:30 50° N 01:42:30 50° N 01:46:09 10° NE
STARLINK-35 4.3 01:44:00 47° N 01:44:00 47° N 01:47:30 10° NE
SL-16 R/B 3.7 01:45:30 26° WNW 01:45:30 26° WNW 01:49:10 10° NW
Resurs 1-4 Rocket 3.1 01:39:26 10° N 01:43:46 32° WNW 01:43:46 32° WNW
Cosmos 2150 Rocket 4.2 01:43:15 55° SSE 01:44:17 68° ESE 01:49:44 10° NNE
STARLINK-1032 4.3 01:45:03 48° ESE 01:45:03 48° ESE 01:48:24 10° ENE
Cosmos 2298 Rocket 4.1 01:43:46 61° SSE 01:44:35 74° ESE 01:49:55 10° NNE
STARLINK-51 4.3 01:45:36 47° N 01:45:36 47° N 01:49:09 10° NE
STARLINK-30 4.3 01:47:11 47° N 01:47:11 47° N 01:50:48 10° NE
STARLINK-1017 4.2 01:47:17 50° N 01:47:17 50° N 01:51:07 10° NE
Lacrosse 5 rocket 3.0 01:47:06 23° NNW 01:47:17 23° NNW 01:50:29 10° NE
CENTAUR R/B 3.5 01:45:38 26° SSE 01:48:09 37° ESE 01:54:16 10° NE
STARLINK-72 4.3 01:48:47 46° N 01:48:47 46° N 01:52:28 10° NE
STARLINK-1011 4.1 01:49:51 54° ESE 01:49:51 54° ESE 01:53:24 10° ENE
IDEFIX/ARIANE 42P 3.8 01:45:16 10° NNE 01:50:05 37° E 01:53:23 18° SSE
STARLINK-50 4.3 01:50:22 46° NNW 01:50:22 46° NNW 01:54:07 10° NE
SL-16 R/B 2.9 01:44:58 10° NNW 01:50:32 52° ENE 01:56:03 10° SE
STARLINK-59 4.3 01:52:02 45° NNW 01:52:02 45° NNW 01:55:52 10° NE
STARLINK-56 4.3 01:53:32 45° NNW 01:53:32 45° NNW 01:57:25 10° NE
STARLINK-1036 3.9 01:54:37 62° ESE 01:54:37 62° ESE 01:58:22 10° ENE
Cosmos 2082 4.5 01:51:55 30° SSE 01:54:20 47° ESE 01:59:48 10° NE
STARLINK-73 4.3 01:55:07 44° NNW 01:55:11 44° NNW 01:59:04 10° NE
Sich 1 Rocket 4.2 01:52:17 10° N 01:56:36 54° ENE 01:59:12 22° SSE
STARLINK-38 4.3 01:56:43 43° NNW 01:56:52 44° NNW 02:00:44 10° NE
Cosmos 468 4.5 01:51:31 10° NNW 01:56:54 85° ENE 02:02:14 10° SSE
IRS-1C 4.1 01:51:50 10° N 01:57:09 68° WNW 01:58:01 58° WSW
STARLINK-65 4.3 01:58:19 43° NNW 01:58:32 43° NNW 02:02:24 10° NE
STARLINK-1044 3.7 01:59:25 69° SE 01:59:25 69° SE 02:03:23 10° ENE
STARLINK-1014 4.3 01:59:58 43° NNW 02:00:14 44° NNW 02:04:09 10° NE
STARLINK-53 4.4 01:59:58 41° NNW 02:00:17 42° NNW 02:04:08 10° NE
STARLINK-1048 4.3 02:01:38 42° NW 02:02:04 44° NNW 02:06:04 10° NE
STARLINK-1047 3.5 02:04:10 76° SSE 02:04:12 76° SSE 02:08:21 10° ENE
Spot 4 Rocket 4.0 01:59:07 10° NNE 02:04:19 82° ESE 02:06:07 42° S
ARIANE 5 R/B 2.5 01:59:38 10° N 02:04:52 76° WNW 02:06:10 51° SW
STARLINK-1037 3.5 02:04:58 77° SSE 02:05:02 77° SE 02:09:11 10° ENE
CZ-2D R/B 3.5 02:02:31 10° N 02:06:47 24° WNW 02:07:10 24° WNW
STARLINK-1049 4.4 02:06:25 39° NW 02:07:04 42° NNW 02:11:03 10° NE
Landsat 5 3.1 02:07:32 80° SSE 02:07:44 90° E 02:11:37 10° NNW
Helios 1B 4.4 02:08:19 65° SSW 02:08:46 72° WSW 02:13:08 10° NNW
Meteor 1-19 Rocket 4.3 02:06:14 29° S 02:09:13 72° E 02:14:43 10° NNE
STARLINK-43 4.4 02:08:27 28° NNW 02:09:54 42° NNE 02:13:26 10° E
Okean 1 3.3 02:11:02 65° WNW 02:11:02 65° WNW 02:14:52 10° N
Cosmos 2279 Rocket 3.9 02:05:23 10° N 02:11:39 89° W 02:17:53 10° S
NOSS 3-2 (C) 3.7 02:09:10 34° S 02:11:40 62° ESE 02:18:03 10° NE
STARLINK-1059 3.4 02:13:45 72° SW 02:14:10 87° SSE 02:18:20 10° ENE
Cosmos 2237 Rocket 2.5 02:09:12 10° NW 02:14:31 42° WSW 02:14:38 42° WSW
Cosmos 389 Rocket 3.4 02:14:58 33° SE 02:16:07 46° E 02:19:31 10° NNE
Cosmos 1515 3.7 02:15:52 57° SSE 02:16:33 78° E 02:20:22 10° NNE
CZ-4B R/B 2.8 02:14:46 10° SE 02:18:04 40° ENE 02:21:22 10° N
STARLINK-1057 3.5 02:18:33 64° WSW 02:19:09 87° NNW 02:23:19 10° ENE
CZ-2C R/B 4.4 02:16:50 10° NE 02:20:29 23° E 02:24:08 10° SSE
ATLAS 5 CENTAUR R/B 3.4 02:18:05 10° NNW 02:23:25 45° NE 02:29:34 10° ESE
Cosmos 1975 2.7 02:19:56 10° NNW 02:23:57 69° W 02:24:54 49° SSW
STARLINK-1034 3.5 02:23:20 56° WSW 02:24:09 82° NNW 02:28:18 10° ENE
ATLAS 5 CENTAUR R/B 4.4 02:23:57 10° S 02:26:42 14° SE 02:28:32 10° ESE
STARLINK-1068 3.6 02:28:05 50° WSW 02:29:05 77° NNW 02:33:15 10° ENE
BREEZE M DEB (TANK) 2.6 02:30:36 44° SE 02:30:36 44° SE 02:33:23 10° ENE
Cosmos 1544 2.9 02:27:59 10° NNW 02:31:39 72° W 02:32:43 42° SSW
Cosmos 1743 4.2 02:30:12 10° NNW 02:32:22 24° WNW 02:32:22 24° WNW
Cosmos 1782 Rocket 3.9 02:30:58 10° NNW 02:35:02 40° W 02:35:32 39° WSW
Cosmos 2297 Rocket 2.6 02:33:05 32° WSW 02:35:19 49° WNW 02:40:51 10° NNE
Cosmos 1818 3.7 02:32:55 10° NW 02:38:24 77° NE 02:43:50 10° SE
STARLINK-1060 3.7 02:37:39 39° W 02:39:04 68° NNW 02:43:12 10° ENE
USA 267 3.2 02:32:39 10° NE 02:39:12 80° NW 02:43:17 25° WSW
Meteor 2-9 Rocket 4.3 02:33:29 10° NNW 02:39:18 65° W 02:45:04 10° S
CZ-2C R/B 2.8 02:35:41 10° N 02:39:42 63° WNW 02:41:11 36° SW
CZ-2D R/B 3.9 02:36:34 10° N 02:40:36 43° WNW 02:41:40 35° WSW
Meteor 2-4 Rocket 3.9 02:35:57 12° S 02:41:25 85° E 02:47:20 10° NNE
Cosmos 2180 Rocket 4.4 02:36:01 10° NNW 02:42:10 67° W 02:48:23 10° S
Meteor 1-18 Rocket 4.5 02:39:45 27° SW 02:42:41 51° WNW 02:48:15 10° N
Okean 1-7 3.8 02:42:07 31° W 02:42:52 33° WNW 02:46:51 10° N
Cosmos 2219 4.1 02:40:57 25° W 02:43:19 35° NW 02:48:35 10° NNE
STARLINK-1030 3.8 02:42:26 34° W 02:44:03 64° NNW 02:48:11 10° ENE
ATLAS 3B R/B 3.3 02:38:43 13° SSW 02:44:33 52° ESE 02:50:57 10° NE
Cosmos 494 Rocket 3.9 02:39:47 10° NNW 02:45:02 70° WSW 02:50:16 10° S
MSX 4.0 02:39:20 10° NNE 02:45:08 77° ESE 02:50:55 10° S
STARLINK-1043 4.5 02:43:48 25° SSW 02:45:45 42° SE 02:49:41 10° ENE
SeaSat 1 3.5 02:41:39 10° SE 02:46:23 49° NE 02:51:09 10° NNW
STARLINK-1065 4.4 02:44:36 25° SSW 02:46:34 42° SE 02:50:29 10° ENE
ASTRO F (AKARI) 4.3 02:43:36 10° NNE 02:47:06 78° WNW 02:48:34 32° SSW
STARLINK-1020 3.9 02:47:13 30° W 02:49:04 60° NNW 02:53:10 10° NE
COSMOS 2441 4.4 02:46:50 10° NNE 02:51:40 78° ESE 02:56:28 10° S
Cosmos 967 Rocket 4.4 02:46:44 10° NW 02:53:13 75° WSW 02:59:34 10° SSE
STARLINK-1052 3.9 02:52:00 27° W 02:54:03 57° NNW 02:58:09 10° NE
H-2A R/B 3.6 02:55:38 18° WNW 02:55:38 18° WNW 02:57:45 10° NW
STARLINK-1063 4.2 02:53:23 23° SSW 02:55:41 49° SE 02:59:42 10° ENE
STARLINK-1027 4.1 02:54:45 25° W 02:57:02 55° NNW 03:01:14 10° NE
Cosmos 1269 Rocket 3.9 02:54:53 10° NNW 03:00:12 74° WSW 03:05:29 10° SSE
Cosmos 1356 3.3 02:57:00 10° NNW 03:00:26 71° W 03:03:50 10° S
STARLINK-1064 4.1 02:58:10 22° SSW 03:00:39 53° SE 03:04:42 10° ENE
Cosmos 2227 Rocket 3.0 02:58:49 21° WSW 03:01:53 36° NW 03:07:06 10° NNE
STARLINK-1033 4.1 03:01:34 22° W 03:04:02 51° NNW 03:08:06 10° NE
STARLINK-1031 4.3 03:02:10 20° W 03:04:48 49° NNW 03:08:58 10° NE
STARLINK-1041 4.0 03:02:56 20° SW 03:05:35 58° SE 03:09:40 10° ENE
USA 238 DEB 4.2 03:02:18 19° WSW 03:06:59 47° NW 03:13:42 10° NNE
USA 238 4.2 03:02:22 19° WSW 03:07:05 48° NW 03:13:50 10° NNE
Cosmos 1674 Rocket 3.7 03:04:26 10° S 03:08:49 78° E 03:13:13 10° NNE
deb Chang Zheng 4 3.9 03:05:07 10° N 03:09:16 46° WNW 03:12:29 16° SW
Cosmos 1943 4.2 03:04:32 10° NNW 03:10:08 52° ENE 03:15:41 10° SE
STARLINK-1038 3.9 03:07:43 19° SW 03:10:34 63° SE 03:14:40 10° ENE
BREEZE-M DEB (TANK) 1.4 03:11:03 21° WSW 03:13:00 78° SSE 03:15:06 10° ENE
ADEOS II 3.8 03:10:32 10° NNW 03:13:37 16° WNW 03:15:54 12° W
STARLINK-1024 4.3 03:11:08 17° W 03:14:03 47° NNW 03:18:04 10° NE
USA 234 3.2 03:07:37 10° SE 03:14:07 69° SW 03:20:40 10° NW
Geosat 4.0 03:10:21 10° NNE 03:15:25 89° ESE 03:20:28 10° SSW
STARLINK-1046 3.8 03:12:30 18° SW 03:15:32 68° SE 03:19:39 10° ENE
Cosmos 1125 Rocket 4.3 03:13:39 17° WSW 03:17:12 36° WNW 03:22:07 10° N
PSLV R/B 4.4 03:13:55 10° SSE 03:18:06 69° ENE 03:22:17 10° N
STARLINK-1035 4.3 03:15:54 15° W 03:19:01 45° NNW 03:23:01 10° NE
STARLINK-1039 3.7 03:17:17 16° SW 03:20:30 73° SE 03:24:38 10° ENE
Cosmos 1689 Rocket 2.1 03:17:52 10° S 03:20:50 56° W 03:23:48 10° NNW
STARLINK-80 4.1 03:19:01 10° NW 03:22:47 56° NNE 03:26:32 10° ESE
STARLINK-1032 4.4 03:20:41 14° W 03:24:02 43° NNW 03:28:00 10° NE
Okean 3 4.3 03:22:12 14° SW 03:25:08 30° WNW 03:28:51 10° N
STARLINK-1045 3.7 03:22:04 15° SW 03:25:28 79° SSE 03:29:37 10° ENE
Cosmos 2221 Rocket 4.5 03:23:03 13° SW 03:26:22 31° WNW 03:30:19 10° N
Lacrosse 5 rocket 3.7 03:24:53 10° NW 03:27:35 17° N 03:30:23 10° NE
Meteor 1-13 Rocket 4.3 03:23:12 10° SSW 03:28:51 59° WNW 03:34:25 10° N
STARLINK-1011 4.5 03:25:29 12° W 03:29:03 41° NNW 03:33:00 10° NE
Cosmos 1300 Rocket 4.3 03:25:41 10° NNW 03:29:31 32° W 03:33:20 10° SSW
IDEFIX/ARIANE 42P 3.4 03:25:01 10° N 03:29:35 32° WNW 03:34:10 10° SW
STARLINK-1050 3.6 03:26:53 14° SW 03:30:28 85° SSE 03:34:37 10° ENE
NOSS 3-2 (A) 4.4 03:26:50 12° W 03:31:52 36° NNW 03:38:04 10° NNE
CZ-4B R/B 4.2 03:29:23 10° NNE 03:33:35 48° E 03:37:54 10° S
SL-16 R/B 3.1 03:29:41 10° NW 03:34:18 26° WSW 03:38:55 10° SSW
Okean 2 Rocket 4.2 03:31:07 10° NNW 03:34:47 25° W 03:38:26 10° SW
STARLINK-1055 3.6 03:31:40 12° WSW 03:35:27 89° NNW 03:39:36 10° ENE
Cosmos 1484 Rocket 3.8 03:32:22 10° NNE 03:36:06 47° E 03:39:43 10° S
Cosmos 2151 Rocket 4.2 03:32:10 10° NNW 03:36:07 33° W 03:40:03 10° SSW
CENTAUR R/B 3.0 03:32:49 11° WSW 03:38:33 52° NW 03:45:35 10° NE
STARLINK-1022 3.6 03:36:28 11° WSW 03:40:27 84° NNW 03:44:37 10° ENE
PSLV R/B 4.3 03:38:20 10° N 03:42:19 34° WNW 03:46:16 10° SW
Cosmos 1092 Rocket 4.1 03:36:29 10° SSW 03:42:46 63° WNW 03:49:02 10° N
Cosmos 1066 Rocket 4.4 03:36:56 10° S 03:42:47 87° WNW 03:48:41 10° N
Meteor 1-4 Rocket 3.5 03:41:20 10° SW 03:44:44 32° WNW 03:48:09 10° N
STARLINK-1042 3.6 03:41:17 10° WSW 03:45:25 79° NNW 03:49:35 10° ENE
Cosmos 1805 3.7 03:42:33 10° N 03:46:27 67° E 03:50:18 10° SSE
STARLINK-43 3.7 03:44:16 10° WNW 03:47:50 45° SW 03:51:22 10° SE
Cosmos 1378 Rocket 3.7 03:43:50 10° SSW 03:48:04 54° WNW 03:52:23 10° N
Cosmos 1455 Rocket 4.5 03:45:11 10° N 03:49:29 45° ENE 03:53:46 10° SSE
STARLINK-41 4.2 03:46:38 10° NW 03:49:40 40° NNE 03:52:41 10° E
Meteor 1-15 Rocket 4.3 03:44:28 10° NNW 03:49:59 61° W 03:55:31 10° S
STARLINK-1056 3.7 03:46:15 10° WSW 03:50:23 74° NNW 03:54:33 10° ENE
CZ-4B R/B 3.3 03:48:40 10° SW 03:50:34 14° W 03:52:29 10° WNW
ALOS 3.1 03:46:37 10° NNE 03:51:13 55° E 03:55:48 10° S
STARLINK-42 3.9 03:49:43 10° NW 03:52:51 47° NNE 03:55:58 10° E
SKYMED 2 4.2 03:48:47 10° SSE 03:53:04 64° ENE 03:57:23 10° N
ADEOS 4.0 03:48:31 10° N 03:53:30 46° WNW 03:58:26 10° SW
Meteor 1-23 Rocket 4.3 03:49:11 10° SSW 03:54:51 65° WNW 04:00:38 10° N
Cosmos 2026 Rocket 4.0 03:48:59 10° SSW 03:55:03 69° W 04:01:07 10° N
STARLINK-1054 3.7 03:51:14 10° WSW 03:55:22 70° NNW 03:59:31 10° ENE
Cosmos 1603 3.8 03:51:53 10° NNW 03:57:24 59° WSW 04:02:55 10° S
